Location: ????????
(55.6333°N, 37.7000°E)
Time: 03:58:00
(UTC+00:00)

NOSS 3-2 (C) - Pass Details

Date: 19 May 2025
Orbit: 686 x 1523 km, 63.4° (Epoch: 04 June)

Event Time Altitude Azimuth Distance (km) Brightness Sun altitude
Rises 22:57:55 0° 310° (NW) 3,775 6.8 -11.9°
Reaches altitude 10° 23:00:21 10° 307° (NW) 2,932 6.2 -11.8°
Maximum altitude 23:07:21 63° 228° (SW) 1,383 4.0 -11.4°
Drops below altitude 10° 23:15:46 10° 151° (SSE) 3,502 6.1 -10.9°
Sets 23:18:55 0° 149° (SSE) 4,553 6.7 -10.7°
